When you browse on this site, cookies collect data to enhance your experience and personalize the content and advertising you see.
Visit our Privacy Policy to learn more. By continuing to use the site, you agree to this use of cookies and data.
EN

Hourly Weather Chakhansur

Today, 9 July, Thursday

Time Temperature Precipitation Wind Pressure Humidity
00:00 +33°C° 0 mm 5 mps 710 mmHg 11%
01:00 +33°C° 0 mm 5 mps 710 mmHg 12%
02:00 +32°C° 0 mm 5 mps 710 mmHg 12%
03:00 +30°C° 0 mm 5 mps 710 mmHg 13%
04:00 +29°C° 0 mm 5 mps 710 mmHg 14%
05:00 +30°C° 0 mm 5 mps 710 mmHg 13%
06:00 +33°C° 0 mm 6 mps 711 mmHg 12%
07:00 +34°C° 0 mm 7 mps 711 mmHg 11%
08:00 +38°C° 0 mm 7 mps 711 mmHg 9%
09:00 +41°C° 0 mm 8 mps 711 mmHg 7%
10:00 +44°C° 0 mm 8 mps 712 mmHg 5%
11:00 +46°C° 0 mm 8 mps 711 mmHg 5%
12:00 +48°C° 0 mm 8 mps 711 mmHg 5%
13:00 +49°C° 0 mm 9 mps 710 mmHg 4%
14:00 +49°C° 0 mm 9 mps 710 mmHg 4%
15:00 +48°C° 0 mm 10 mps 709 mmHg 4%
16:00 +48°C° 0 mm 11 mps 709 mmHg 4%
17:00 +45°C° 0 mm 9 mps 708 mmHg 5%
18:00 +43°C° 0 mm 8 mps 708 mmHg 5%
19:00 +40°C° 0 mm 6 mps 708 mmHg 6%
20:00 +39°C° 0 mm 7 mps 708 mmHg 7%
21:00 +38°C° 0 mm 7 mps 708 mmHg 8%
22:00 +36°C° 0 mm 7 mps 708 mmHg 9%
23:00 +35°C° 0 mm 8 mps 708 mmHg 10%

Tomorrow, 10 July, Friday

Time Temperature Precipitation Wind Pressure Humidity
00:00 +35°C° 0 mm 9 mps 708 mmHg 11%
01:00 +35°C° 0 mm 9 mps 707 mmHg 11%
02:00 +34°C° 0 mm 9 mps 707 mmHg 12%
03:00 +33°C° 0 mm 9 mps 707 mmHg 13%
04:00 +32°C° 0 mm 8 mps 707 mmHg 14%
05:00 +33°C° 0 mm 9 mps 707 mmHg 14%
06:00 +34°C° 0 mm 9 mps 708 mmHg 13%
07:00 +35°C° 0 mm 9 mps 708 mmHg 12%
08:00 +38°C° 0 mm 9 mps 709 mmHg 10%
09:00 +41°C° 0 mm 8 mps 709 mmHg 9%
10:00 +44°C° 0 mm 8 mps 709 mmHg 7%
11:00 +45°C° 0 mm 7 mps 709 mmHg 6%
12:00 +46°C° 0 mm 7 mps 708 mmHg 6%
13:00 +48°C° 0 mm 6 mps 708 mmHg 5%
14:00 +48°C° 0 mm 5 mps 707 mmHg 5%
15:00 +48°C° 0 mm 5 mps 707 mmHg 4%
16:00 +49°C° 0 mm 4 mps 706 mmHg 4%
17:00 +46°C° 0 mm 6 mps 706 mmHg 5%
18:00 +44°C° 0 mm 7 mps 706 mmHg 6%
19:00 +42°C° 0 mm 9 mps 706 mmHg 7%
20:00 +40°C° 0 mm 9 mps 706 mmHg 9%
21:00 +39°C° 0 mm 9 mps 706 mmHg 10%
22:00 +38°C° 0 mm 10 mps 707 mmHg 11%
23:00 +37°C° 0 mm 9 mps 706 mmHg 12%

Day after tomorrow, 11 July, Saturday

Time Temperature Precipitation Wind Pressure Humidity
00:00 +35°C° 0 mm 8 mps 706 mmHg 12%
01:00 +34°C° 0 mm 7 mps 706 mmHg 13%
02:00 +34°C° 0 mm 7 mps 706 mmHg 14%
03:00 +33°C° 0 mm 8 mps 706 mmHg 14%
04:00 +33°C° 0 mm 8 mps 706 mmHg 14%
05:00 +34°C° 0 mm 8 mps 706 mmHg 14%
06:00 +35°C° 0 mm 9 mps 707 mmHg 13%
07:00 +37°C° 0 mm 9 mps 707 mmHg 12%
08:00 +40°C° 0 mm 9 mps 708 mmHg 10%
09:00 +43°C° 0 mm 8 mps 708 mmHg 9%
10:00 +45°C° 0 mm 8 mps 708 mmHg 7%
11:00 +46°C° 0 mm 7 mps 708 mmHg 6%
12:00 +48°C° 0 mm 6 mps 707 mmHg 6%
13:00 +49°C° 0 mm 6 mps 707 mmHg 5%
14:00 +49°C° 0 mm 9 mps 707 mmHg 6%
15:00 +49°C° 0 mm 12 mps 706 mmHg 7%
16:00 +50°C° 0 mm 15 mps 706 mmHg 8%
17:00 +47°C° 0 mm 15 mps 706 mmHg 9%
18:00 +43°C° 0 mm 15 mps 706 mmHg 9%
19:00 +41°C° 0 mm 15 mps 706 mmHg 10%
20:00 +40°C° 0 mm 15 mps 706 mmHg 11%
21:00 +38°C° 0 mm 15 mps 706 mmHg 12%
22:00 +37°C° 0 mm 14 mps 707 mmHg 13%
23:00 +36°C° 0 mm 13 mps 706 mmHg 14%

12 July, Sunday

Time Temperature Precipitation Wind Pressure Humidity
00:00 +36°C° 0 mm 12 mps 706 mmHg 14%
01:00 +34°C° 0 mm 10 mps 706 mmHg 15%
02:00 +33°C° 0 mm 10 mps 705 mmHg 15%
03:00 +33°C° 0 mm 9 mps 705 mmHg 16%
04:00 +32°C° 0 mm 8 mps 705 mmHg 16%
05:00 +33°C° 0 mm 9 mps 705 mmHg 16%
06:00 +34°C° 0 mm 9 mps 706 mmHg 15%
07:00 +36°C° 0 mm 10 mps 706 mmHg 14%
08:00 +38°C° 0 mm 9 mps 706 mmHg 12%
09:00 +40°C° 0 mm 8 mps 707 mmHg 11%
10:00 +43°C° 0 mm 7 mps 707 mmHg 9%
11:00 +44°C° 0 mm 7 mps 707 mmHg 8%
12:00 +46°C° 0 mm 7 mps 706 mmHg 7%
13:00 +47°C° 0 mm 7 mps 706 mmHg 6%
14:00 +49°C° 0 mm 8 mps 706 mmHg 6%
15:00 +49°C° 0 mm 9 mps 705 mmHg 6%
16:00 +49°C° 0 mm 10 mps 705 mmHg 6%
17:00 +47°C° 0 mm 10 mps 705 mmHg 7%
18:00 +44°C° 0 mm 11 mps 705 mmHg 9%
19:00 +42°C° 0 mm 11 mps 705 mmHg 10%
20:00 +41°C° 0 mm 11 mps 705 mmHg 11%
21:00 +39°C° 0 mm 12 mps 705 mmHg 12%
22:00 +38°C° 0 mm 12 mps 706 mmHg 13%
23:00 +37°C° 0 mm 11 mps 705 mmHg 14%

13 July, Monday

Time Temperature Precipitation Wind Pressure Humidity
00:00 +35°C° 0 mm 9 mps 705 mmHg 15%
01:00 +34°C° 0 mm 8 mps 705 mmHg 15%
02:00 +33°C° 0 mm 8 mps 705 mmHg 17%
03:00 +32°C° 0 mm 7 mps 705 mmHg 18%
04:00 +30°C° 0 mm 7 mps 705 mmHg 19%
05:00 +32°C° 0 mm 7 mps 705 mmHg 18%
06:00 +33°C° 0 mm 8 mps 706 mmHg 17%
07:00 +34°C° 0 mm 8 mps 706 mmHg 17%
08:00 +38°C° 0 mm 8 mps 707 mmHg 14%
09:00 +40°C° 0 mm 7 mps 707 mmHg 12%
10:00 +44°C° 0 mm 7 mps 707 mmHg 10%
11:00 +45°C° 0 mm 6 mps 707 mmHg 9%
12:00 +46°C° 0 mm 5 mps 707 mmHg 8%
13:00 +47°C° 0 mm 5 mps 707 mmHg 7%
14:00 +47°C° 0 mm 5 mps 707 mmHg 7%
15:00 +48°C° 0 mm 5 mps 706 mmHg 7%
16:00 +48°C° 0 mm 5 mps 706 mmHg 6%
17:00 +46°C° 0 mm 6 mps 706 mmHg 7%
18:00 +44°C° 0 mm 7 mps 706 mmHg 9%
19:00 +43°C° 0 mm 8 mps 706 mmHg 10%
20:00 +41°C° 0 mm 8 mps 706 mmHg 11%
21:00 +40°C° 0 mm 8 mps 707 mmHg 12%
22:00 +39°C° 0 mm 9 mps 707 mmHg 13%
23:00 +37°C° 0 mm 8 mps 707 mmHg 14%

14 July, Tuesday

Time Temperature Precipitation Wind Pressure Humidity
00:00 +35°C° 0 mm 7 mps 707 mmHg 15%
01:00 +34°C° 0 mm 6 mps 707 mmHg 16%
02:00 +33°C° 0 mm 6 mps 707 mmHg 16%
03:00 +32°C° 0 mm 6 mps 707 mmHg 16%
04:00 +30°C° 0 mm 7 mps 708 mmHg 16%
05:00 +33°C° 0 mm 8 mps 708 mmHg 15%
06:00 +34°C° 0 mm 9 mps 709 mmHg 13%
07:00 +35°C° 0 mm 9 mps 710 mmHg 11%
08:00 +38°C° 0 mm 9 mps 710 mmHg 10%
09:00 +40°C° 0 mm 9 mps 711 mmHg 9%
10:00 +43°C° 0 mm 8 mps 711 mmHg 8%
11:00 +45°C° 0 mm 8 mps 711 mmHg 8%
12:00 +48°C° 0 mm 8 mps 710 mmHg 7%
13:00 +49°C° 0 mm 8 mps 710 mmHg 6%
14:00 +49°C° 0 mm 9 mps 710 mmHg 6%
15:00 +49°C° 0 mm 9 mps 709 mmHg 6%
16:00 +49°C° 0 mm 10 mps 709 mmHg 5%
17:00 +48°C° 0 mm 9 mps 709 mmHg 6%
18:00 +45°C° 0 mm 8 mps 709 mmHg 6%
19:00 +43°C° 0 mm 7 mps 708 mmHg 6%
20:00 +41°C° 0 mm 7 mps 709 mmHg 7%
21:00 +40°C° 0 mm 8 mps 709 mmHg 8%
22:00 +39°C° 0 mm 8 mps 709 mmHg 9%
23:00 +37°C° 0 mm 8 mps 709 mmHg 11%
Show more